Change the Weather History Date:

Sunday, June 30, 2013

  Actual Average Record
Temperature  
Mean Temperature 76 °F -  
Max Temperature 84 °F 89 °F 105 °F (2012)
Min Temperature 69 °F 68 °F 58 °F (1962)
Cooling Degree Days 10    
Growing Degree Days 26 (Base 50)    
Moisture  
Dew Point 70 °F    
Average Humidity 88    
Maximum Humidity 100    
Minimum Humidity 58    
Precipitation  
Precipitation 0.00 in - - ()
Sea Level Pressure  
Sea Level Pressure 29.76 in    
Wind  
Wind Speed 3 mph (South)    
Max Wind Speed 8 mph    
Max Gust Speed -    
Visibility 9 miles    
Events Rain    
Averages and records for this station are not official NWS values.
T = Trace of Precipitation, MM = Missing Value Source: NWS Daily Summary

Daily Weather History Graph

Daily Weather History Graph

Search for Another Location

Airport or City:

Trip Planner

Search our weather history database for the weather conditions in past years. The results will help you decide how hot, cold, wet, or windy it might be!

Date:

Astronomy

Jun. 30, 2013 Rise Set
Actual Time 6:21 AM EDT 8:47 PM EDT
Civil Twilight 5:52 AM EDT 9:16 PM EDT
Nautical Twilight 5:16 AM EDT 9:52 PM EDT
Astronomical Twilight 4:36 AM EDT 10:32 PM EDT
Moon 1:07 AM EDT (6/30) 2:11 PM EDT (6/30)
Length of Visible Light 15h 24m
Length of Day
14h 25m
Last Quarter, 45% of the Moon is Illuminated
Jun 30
Last Quarter
Jul 8
New
Jul 15
First Quarter
Jul 22
Full
Jul 29
Last Quarter

Hourly Weather History & Observations

Time (EDT) Temp. Heat Index Dew Point Humidity Pressure Visibility Wind Dir Wind Speed Gust Speed Precip Events Conditions
12:56 AM 70.0 °F - 68.0 °F 93% 29.71 in 10.0 mi SSW 4.6 mph - N/A   Mostly Cloudy
1:56 AM 69.1 °F - 68.0 °F 96% 29.71 in 10.0 mi WSW 4.6 mph - N/A   Scattered Clouds
2:56 AM 70.0 °F - 68.0 °F 93% 29.71 in 10.0 mi Calm Calm - N/A   Overcast
3:56 AM 70.0 °F - 68.0 °F 93% 29.70 in 10.0 mi Calm Calm - N/A   Overcast
4:14 AM 69.8 °F - 68.0 °F 94% 29.73 in 10.0 mi Calm Calm - N/A   Overcast
4:26 AM 71.6 °F - 68.0 °F 88% 29.72 in 10.0 mi Calm Calm - N/A   Overcast
4:56 AM 71.1 °F - 69.1 °F 93% 29.69 in 10.0 mi Calm Calm - N/A   Overcast
5:35 AM 71.6 °F - 69.8 °F 94% 29.74 in 10.0 mi Calm Calm - N/A   Overcast
5:56 AM 70.0 °F - 69.1 °F 97% 29.72 in 10.0 mi Calm Calm - N/A   Overcast
6:09 AM 69.8 °F - 69.8 °F 100% 29.75 in 10.0 mi SSE 3.5 mph - N/A   Mostly Cloudy
6:41 AM 69.8 °F - 69.8 °F 100% 29.75 in 8.0 mi SSE 3.5 mph - N/A   Mostly Cloudy
6:56 AM 71.1 °F - 70.0 °F 96% 29.73 in 6.0 mi SSW 4.6 mph - N/A   Overcast
7:33 AM 71.6 °F - 69.8 °F 94% 29.76 in 4.0 mi Calm Calm - N/A   Mostly Cloudy
7:56 AM 72.0 °F - 71.1 °F 97% 29.74 in 5.0 mi Calm Calm - N/A   Overcast
8:25 AM 71.6 °F - 71.6 °F 100% 29.78 in 6.0 mi South 3.5 mph - N/A   Overcast
8:56 AM 73.0 °F - 71.1 °F 93% 29.76 in 9.0 mi SSW 3.5 mph - N/A   Overcast
9:56 AM 73.9 °F - 71.1 °F 91% 29.76 in 10.0 mi Calm Calm - N/A   Overcast
10:53 AM 77.0 °F - 71.6 °F 83% 29.79 in 10.0 mi SW 3.5 mph - N/A   Overcast
10:56 AM 77.0 °F - 71.1 °F 82% 29.77 in 10.0 mi Calm Calm - N/A   Overcast
11:24 AM 78.8 °F - 71.6 °F 78% 29.80 in 10.0 mi SW 5.8 mph - N/A   Mostly Cloudy
11:35 AM 77.0 °F - 69.8 °F 78% 29.80 in 10.0 mi SW 4.6 mph - N/A   Mostly Cloudy
11:56 AM 75.9 °F - 72.0 °F 87% 29.78 in 9.0 mi South 3.5 mph - 0.00 in Rain Light Rain
12:56 PM 79.0 °F - 72.0 °F 79% 29.77 in 10.0 mi SSE 5.8 mph - 0.00 in   Partly Cloudy
1:56 PM 82.0 °F 85.5 °F 69.1 °F 65% 29.75 in 10.0 mi Variable 4.6 mph - N/A   Clear
2:56 PM 82.9 °F 85.4 °F 66.9 °F 58% 29.73 in 10.0 mi SE 5.8 mph - N/A   Scattered Clouds
3:56 PM 81.0 °F 83.3 °F 66.9 °F 62% 29.73 in 10.0 mi South 5.8 mph - N/A   Mostly Cloudy
4:56 PM 78.1 °F - 72.0 °F 81% 29.73 in 10.0 mi SSE 5.8 mph - 0.00 in   Overcast
5:56 PM 77.0 °F - 70.0 °F 79% 29.74 in 10.0 mi SSE 4.6 mph - N/A   Mostly Cloudy
6:56 PM 77.0 °F - 69.1 °F 76% 29.75 in 10.0 mi SSE 4.6 mph - N/A   Mostly Cloudy
7:56 PM 73.0 °F - 69.1 °F 87% 29.76 in 10.0 mi South 8.1 mph - N/A   Partly Cloudy
8:56 PM 72.0 °F - 68.0 °F 87% 29.79 in 10.0 mi ESE 4.6 mph - N/A   Clear
9:56 PM 71.1 °F - 68.0 °F 90% 29.81 in 10.0 mi SE 5.8 mph - N/A   Mostly Cloudy
10:54 PM 71.6 °F - 69.8 °F 94% 29.85 in 10.0 mi South 4.6 mph - N/A   Partly Cloudy
10:56 PM 71.1 °F - 69.1 °F 93% 29.82 in 10.0 mi SSE 5.8 mph - N/A   Partly Cloudy
11:56 PM 70.0 °F - 69.1 °F 97% 29.81 in 10.0 mi Calm Calm - N/A   Partly Cloudy